Tracking 20036 objects as of 22-Nov-2019
Live streaming from Space Station
objects crossing your sky now

DELTA 1 DEB

Track DELTA 1 DEB now!
10-day predictions


NORAD ID: 7933
Int'l Code: 1972-058CB
Perigee: 619.0 km
Apogee: 1,063.3 km
Inclination: 98.8 °
Period: 101.6 minutes
Semi major axis: 7212 km
RCS: 0.0774 m2 (small)
Launch date: July 23, 1972
Source: United States (US)
Launch site: AIR FORCE WESTERN TEST RANGE (AFWTR)

Note: This is SATELLITE DEBRIS
aabbcc
Your satellite tracking list
Your tracking list is empty




NASA's NSSDC Master Catalog

Two Line Element Set (TLE):
1  7933U 72058CB  19324.85364573 +.00000105 +00000-0 +49004-4 0  9991
2  7933 098.8381 285.5293 0308011 197.1206 161.9395 14.17440701255380
Source of the keplerian elements: AFSPC